Find Starlink 32917

NORAD ID: 62921 Int'l Des: 2025-027 Owner: SPXS Country: US Constellation: starlink operational
LEOCIRCULAR

Live Position

Loading 3D Globe...

About Starlink 32917

Description loading...

Upcoming Passes

Passes for default location (London). Set your location on the main map for personalized predictions.

Altitude History

Loading altitude history...

Two-Line Element Set

1 62921U 25027Q 26126.11179948 .00014524 00000-0 53615-3 0 9992
2 62921 42.9981 164.6296 0001933 274.1648 85.8982 15.27586260 70321
Epoch: May 6, 2026 • Age: 7 hours

Current Status

Altitude 482.5 km
Velocity 7.63 km/s
Sub-Earth Point 10.74°N, 38.08°W
Launch Date Feb 8, 2025
Age 1.2 years
Type internet

Technical Details

Classification Payload
Mass 730.00 kg
Dry Mass 700.00 kg
Total Mass 730.00 kg
Length 0.30 m
Diameter 4.10 m
Span 29.00 m
Shape Box + pan
Manufacturer SPXS
Bus Type Starlink V2M
Phase Status In Orbit
Owner/State SPXS/US

Most Searched